Previsão horária em Alisovo

Hoje, 16 Junho, Quarta-feira

Tempo Temperatura Precipitação Vento Pressão Humidade
00:00 +17°C° 0 mm 2 m/s 740 mmHg 89%
01:00 +17°C° 0 mm 2 m/s 740 mmHg 90%
02:00 +17°C° 0 mm 3 m/s 740 mmHg 92%
03:00 +17°C° 0 mm 2 m/s 740 mmHg 92%
04:00 +17°C° 0 mm 2 m/s 740 mmHg 93%
05:00 +17°C° 0 mm 2 m/s 740 mmHg 93%
06:00 +19°C° 0 mm 3 m/s 740 mmHg 89%
07:00 +20°C° 0 mm 3 m/s 741 mmHg 84%
08:00 +21°C° 0 mm 4 m/s 741 mmHg 80%
09:00 +22°C° 0 mm 4 m/s 741 mmHg 75%
10:00 +23°C° 0 mm 4 m/s 741 mmHg 71%
11:00 +25°C° 0 mm 5 m/s 741 mmHg 66%
12:00 +25°C° 0 mm 5 m/s 741 mmHg 65%
13:00 +25°C° 0 mm 4 m/s 742 mmHg 63%
14:00 +25°C° 0 mm 4 m/s 742 mmHg 62%
15:00 +25°C° 0 mm 4 m/s 742 mmHg 66%
16:00 +25°C° 0 mm 4 m/s 742 mmHg 69%
17:00 +23°C° 0 mm 4 m/s 742 mmHg 73%
18:00 +22°C° 0 mm 4 m/s 742 mmHg 79%
19:00 +20°C° 0 mm 3 m/s 743 mmHg 84%
20:00 +18°C° 0 mm 3 m/s 743 mmHg 90%
21:00 +18°C° 0 mm 3 m/s 744 mmHg 90%
22:00 +17°C° 0 mm 3 m/s 744 mmHg 91%
23:00 +17°C° 0 mm 3 m/s 744 mmHg 91%

Amanhã, 17 Junho, Quinta-feira

Tempo Temperatura Precipitação Vento Pressão Humidade
00:00 +16°C° 0 mm 3 m/s 744 mmHg 91%
01:00 +16°C° 0 mm 3 m/s 745 mmHg 92%
02:00 +14°C° 0 mm 3 m/s 745 mmHg 93%
03:00 +14°C° 0 mm 3 m/s 745 mmHg 90%
04:00 +15°C° 0 mm 4 m/s 746 mmHg 87%
05:00 +15°C° 0 mm 4 m/s 746 mmHg 84%
06:00 +17°C° 0 mm 4 m/s 747 mmHg 78%
07:00 +17°C° 0 mm 5 m/s 747 mmHg 71%
08:00 +20°C° 0 mm 5 m/s 747 mmHg 65%
09:00 +20°C° 0 mm 5 m/s 748 mmHg 62%
10:00 +21°C° 0 mm 5 m/s 748 mmHg 58%
11:00 +22°C° 0 mm 5 m/s 748 mmHg 55%
12:00 +22°C° 0 mm 5 m/s 748 mmHg 56%
13:00 +22°C° 0 mm 5 m/s 748 mmHg 56%
14:00 +23°C° 0 mm 5 m/s 749 mmHg 56%
15:00 +22°C° 0 mm 5 m/s 749 mmHg 61%
16:00 +22°C° 0 mm 5 m/s 749 mmHg 65%
17:00 +22°C° 0 mm 4 m/s 749 mmHg 70%
18:00 +20°C° 0 mm 4 m/s 749 mmHg 76%
19:00 +18°C° 0 mm 4 m/s 749 mmHg 82%
20:00 +17°C° 0 mm 3 m/s 750 mmHg 87%
21:00 +16°C° 0 mm 3 m/s 750 mmHg 88%
22:00 +14°C° 0 mm 3 m/s 750 mmHg 89%
23:00 +14°C° 0 mm 3 m/s 750 mmHg 90%

Depois de amanhã, 18 Junho, Sexta-feira

Tempo Temperatura Precipitação Vento Pressão Humidade
00:00 +13°C° 0 mm 3 m/s 750 mmHg 88%
01:00 +13°C° 0 mm 3 m/s 751 mmHg 87%
02:00 +12°C° 0 mm 3 m/s 751 mmHg 86%
03:00 +13°C° 0 mm 3 m/s 751 mmHg 85%
04:00 +13°C° 0 mm 3 m/s 751 mmHg 84%
05:00 +13°C° 0 mm 3 m/s 751 mmHg 84%
06:00 +16°C° 0 mm 3 m/s 752 mmHg 78%
07:00 +18°C° 0 mm 4 m/s 752 mmHg 73%
08:00 +19°C° 0 mm 4 m/s 752 mmHg 68%
09:00 +20°C° 0 mm 4 m/s 752 mmHg 64%
10:00 +21°C° 0 mm 5 m/s 752 mmHg 61%
11:00 +22°C° 0 mm 5 m/s 752 mmHg 58%
12:00 +22°C° 0 mm 5 m/s 752 mmHg 58%
13:00 +22°C° 0 mm 4 m/s 752 mmHg 58%
14:00 +23°C° 0 mm 4 m/s 752 mmHg 58%
15:00 +22°C° 0 mm 4 m/s 752 mmHg 62%
16:00 +22°C° 0 mm 4 m/s 752 mmHg 65%
17:00 +22°C° 0 mm 3 m/s 752 mmHg 69%
18:00 +20°C° 0 mm 3 m/s 752 mmHg 75%
19:00 +19°C° 0 mm 3 m/s 752 mmHg 80%
20:00 +17°C° 0 mm 3 m/s 752 mmHg 85%
21:00 +16°C° 0 mm 3 m/s 752 mmHg 86%
22:00 +16°C° 0 mm 2 m/s 752 mmHg 87%
23:00 +15°C° 0 mm 2 m/s 752 mmHg 89%

19 Junho, Sábado

Tempo Temperatura Precipitação Vento Pressão Humidade
00:00 +15°C° 0 mm 2 m/s 753 mmHg 89%
01:00 +14°C° 0 mm 2 m/s 753 mmHg 90%
02:00 +14°C° 0 mm 2 m/s 753 mmHg 91%
03:00 +14°C° 0 mm 2 m/s 753 mmHg 90%
04:00 +15°C° 0 mm 2 m/s 753 mmHg 89%
05:00 +15°C° 0 mm 2 m/s 753 mmHg 89%
06:00 +17°C° 0 mm 2 m/s 753 mmHg 83%
07:00 +19°C° 0 mm 3 m/s 753 mmHg 77%
08:00 +20°C° 0 mm 3 m/s 754 mmHg 70%
09:00 +21°C° 0 mm 3 m/s 753 mmHg 67%
10:00 +22°C° 0 mm 3 m/s 753 mmHg 63%
11:00 +23°C° 0 mm 4 m/s 753 mmHg 60%
12:00 +23°C° 0 mm 4 m/s 753 mmHg 59%
13:00 +25°C° 0 mm 3 m/s 753 mmHg 58%
14:00 +25°C° 0 mm 3 m/s 753 mmHg 57%
15:00 +25°C° 0 mm 3 m/s 752 mmHg 61%
16:00 +25°C° 0 mm 3 m/s 752 mmHg 65%
17:00 +24°C° 0 mm 2 m/s 752 mmHg 69%
18:00 +23°C° 0 mm 2 m/s 752 mmHg 74%
19:00 +20°C° 0 mm 2 m/s 752 mmHg 79%
20:00 +18°C° 0 mm 2 m/s 752 mmHg 84%
21:00 +18°C° 0 mm 2 m/s 752 mmHg 85%
22:00 +17°C° 0 mm 2 m/s 752 mmHg 87%
23:00 +16°C° 0 mm 2 m/s 752 mmHg 88%

20 Junho, Domingo

Tempo Temperatura Precipitação Vento Pressão Humidade
00:00 +16°C° 0 mm 2 m/s 752 mmHg 88%
01:00 +15°C° 0 mm 2 m/s 752 mmHg 89%
02:00 +15°C° 0 mm 2 m/s 752 mmHg 89%
03:00 +15°C° 0 mm 2 m/s 752 mmHg 89%
04:00 +16°C° 0 mm 2 m/s 752 mmHg 88%
05:00 +16°C° 0 mm 2 m/s 752 mmHg 87%
06:00 +18°C° 0 mm 2 m/s 752 mmHg 81%
07:00 +20°C° 0 mm 2 m/s 752 mmHg 76%
08:00 +21°C° 0 mm 2 m/s 752 mmHg 70%
09:00 +22°C° 0 mm 3 m/s 752 mmHg 67%
10:00 +24°C° 0 mm 3 m/s 752 mmHg 63%
11:00 +25°C° 0 mm 3 m/s 752 mmHg 59%
12:00 +26°C° 0 mm 3 m/s 752 mmHg 59%
13:00 +26°C° 0 mm 3 m/s 751 mmHg 58%
14:00 +27°C° 0 mm 3 m/s 751 mmHg 57%
15:00 +26°C° 0 mm 2 m/s 751 mmHg 61%
16:00 +26°C° 0 mm 2 m/s 751 mmHg 65%
17:00 +26°C° 0 mm 2 m/s 750 mmHg 68%
18:00 +25°C° 0 mm 2 m/s 750 mmHg 73%
19:00 +23°C° 0 mm 2 m/s 750 mmHg 78%
20:00 +20°C° 0 mm 2 m/s 750 mmHg 82%
21:00 +20°C° 0 mm 2 m/s 750 mmHg 83%
22:00 +19°C° 0 mm 2 m/s 750 mmHg 84%
23:00 +19°C° 0 mm 2 m/s 750 mmHg 84%

21 Junho, Segunda-feira

Tempo Temperatura Precipitação Vento Pressão Humidade
00:00 +19°C° 0 mm 2 m/s 750 mmHg 86%
01:00 +18°C° 0 mm 2 m/s 750 mmHg 88%
02:00 +18°C° 0 mm 2 m/s 749 mmHg 90%
03:00 +18°C° 0 mm 2 m/s 749 mmHg 90%
04:00 +19°C° 0 mm 2 m/s 749 mmHg 90%
05:00 +19°C° 0 mm 2 m/s 749 mmHg 90%
06:00 +21°C° 0 mm 2 m/s 749 mmHg 85%
07:00 +24°C° 0 mm 2 m/s 749 mmHg 80%
08:00 +25°C° 0 mm 3 m/s 749 mmHg 76%
09:00 +26°C° 0 mm 3 m/s 749 mmHg 71%
10:00 +27°C° 0 mm 3 m/s 749 mmHg 67%
11:00 +28°C° 0 mm 3 m/s 749 mmHg 62%
12:00 +28°C° 0 mm 3 m/s 748 mmHg 60%
13:00 +29°C° 0 mm 3 m/s 748 mmHg 58%
14:00 +29°C° 0 mm 3 m/s 748 mmHg 56%
15:00 +29°C° 0 mm 2 m/s 748 mmHg 60%
16:00 +29°C° 0 mm 2 m/s 747 mmHg 63%
17:00 +29°C° 0 mm 2 m/s 747 mmHg 66%
18:00 +27°C° 0 mm 2 m/s 747 mmHg 70%
19:00 +25°C° 0 mm 2 m/s 747 mmHg 74%
20:00 +24°C° 0 mm 1 m/s 747 mmHg 78%
21:00 +23°C° 0 mm 1 m/s 747 mmHg 79%
22:00 +23°C° 0 mm 1 m/s 747 mmHg 80%
23:00 +22°C° 0 mm 1 m/s 747 mmHg 81%
Mostrar mais